DECAYED

COSMOS 2251 DEB, 37133 (Decayed)

Orbit data source: Space-Track

COSMOS 2251 DEB, 37133 was space debris in LEO originally from a launch on Wed, 16 Jun 1993 UTC launched from the Plesetsk Missile And Space Complex (PKMTR). The debris from Iridium 33, an American commercial communications satellite, has been tracked extensively since its accidental collision with the defunct Russian satellite Cosmos 2251 in 2009. This event, occurring at high speed in low Earth orbit (LEO), generated thousands of pieces of space debris, significantly increasing the risk of further collisions. The Iridium 33 debris cloud has impacted space traffic management and orbital debris mitigation strategies, making it a subject of ongoing study in space situational awareness.

Not visible in the next 10 days
Identifier
37133, 1993-036BHF
Orbit
Decayed
Country
Flag of CISCIS
Related business
Manufacturer
Unknown
Mission
Decayed spacecraft
Bus & Motor
Unknown
Mass
Unknown
Launch date (UTC)
1993-06-16 (33 years ago)
Launch vehicle
Unknown
Launch site
Plesetsk Missile And Space Complex (PKMTR)
Object type
Payload
Rocket body
Debris
Shape & HBR
Unknown shape, 0.1 m
Radar Cross Section
Small (<0.1 m²)

Expand to show TLE details & history
Last TLE update: 3 months ago

TLE from 3 months ago
0 COSMOS 2251 DEB
1 37133U 93036BHF 26166.72043050  .01221963  00000-0  18225-1 0  9993
2 37133  73.9500 332.6214 0004405  85.9639 274.2078 15.52325181612324
Epoch: 2026-06-15T17:17Z
TLE epoch observation values (Epoch: 2026-06-15T17:17:25.195Z)
Latitude
-0.00003°
Longitude
169.26365°
Altitude
412.466 km
Speed
7.664 km/s
True Right ascension
22h 10m 29s
True Declination
0° 00' 00"
Sunlit
Object was in daylight at epoch
Visualization orbit readout
Latitude
Unknown
Longitude
Unknown
Altitude
Unknown
Speed
Unknown
Apparent Right ascension
Unknown
Apparent Declination
Unknown
Sunlit
N/A
Visualization observer readout
Local Sidereal Time
12:19:02
Azimuth
Unknown
Elevation
Unknown
Doppler factor
Unknown
Orbital elements
Apogee altitude
410.433 km
Perigee altitude
404.455 km
Semi-major axis
6,785.581 km
Eccentricity
0.00044
Inclination
73.95°
RAAN
332.6214°
Arg. of periapsis
85.9639°
True anomaly
274.15746°
Mean anomaly
274.2078°
Eccentric anomaly
274.18263°
Mean motion
3.88296 °/min
Orbital period
92.71 mins
BSTAR
0.018225
Loading maneuver chart data...
Computing Atmospheric mass density...

Documentation

Showing up to 5 results
|